Location: Unspecified
(48.2082°N, 0.0000°E)
Time: 19:27:46
(UTC+00:00)

Altair - All Passes

Search period start: 18 June 2019 00:00
Search period end: 28 June 2019 00:00
Orbit: 1501 x 1683 km, 47.2° (Epoch: 18 June)

Date Brightness Start Highest point End Pass type
(mag) Time Alt. Az. Time Alt. Az. Time Alt. Az.
18 Jun - 00:42:09 10° W 00:52:07 82° S 01:02:18 10° ESE visible
18 Jun - 02:46:56 10° WNW 02:56:30 51° SSW 03:06:10 10° SE visible
18 Jun - 04:53:18 10° W 04:59:33 19° SW 05:05:50 10° SSW daylight
18 Jun - 18:12:08 10° SE 18:15:28 12° ESE 18:18:50 10° E daylight
18 Jun - 20:09:16 10° SSW 20:18:00 42° SE 20:27:04 10° ENE daylight
18 Jun - 22:12:20 10° WSW 22:22:02 78° SSE 22:32:06 10° E visible
19 Jun - 00:16:58 10° W 00:26:54 83° S 00:37:06 10° ESE visible
19 Jun - 02:21:44 10° WNW 02:31:22 54° SSW 02:41:06 10° SE visible
19 Jun - 04:27:47 10° W 04:34:31 20° SW 04:41:17 10° S daylight
19 Jun - 17:48:50 10° SE 17:50:30 11° ESE 17:52:11 10° ESE daylight
19 Jun - 19:44:22 10° SSW 19:52:55 39° SE 20:01:48 10° ENE daylight
19 Jun - 21:47:12 10° WSW 21:56:51 76° SSE 22:06:53 10° E visible
19 Jun - 23:51:47 10° W 00:01:41 84° S 00:11:52 10° E visible
20 Jun - 01:56:33 10° WNW 02:06:13 56° SSW 02:16:02 10° SE visible
20 Jun - 04:02:21 10° W 04:09:29 22° SW 04:16:40 10° S daylight
20 Jun - 19:19:29 10° SSW 19:27:51 37° SE 19:36:31 10° ENE daylight
20 Jun - 21:22:05 10° WSW 21:31:40 73° SSE 21:41:39 10° E visible
20 Jun - 23:26:37 10° W 23:36:29 85° S 23:46:39 10° E visible
21 Jun - 01:31:22 10° WNW 01:41:04 59° SSW 01:50:57 10° SE visible
21 Jun - 03:36:57 10° W 03:44:27 24° SW 03:51:59 10° S daylight
21 Jun - 18:54:38 10° SSW 19:02:48 34° SE 19:11:14 10° ENE daylight
21 Jun - 20:56:59 10° WSW 21:06:30 71° SSE 21:16:25 10° ENE visible
21 Jun - 23:01:26 10° W 23:11:16 85° S 23:21:25 10° E visible
22 Jun - 01:06:11 10° WNW 01:15:54 62° SSW 01:25:50 10° SE visible
22 Jun - 03:11:35 10° W 03:19:23 27° SW 03:27:15 10° S visible
22 Jun - 18:29:49 10° SSW 18:37:44 32° SE 18:45:55 10° ENE daylight
22 Jun - 20:31:53 10° WSW 20:41:21 69° SSE 20:51:12 10° ENE visible
22 Jun - 22:36:17 10° W 22:46:03 86° S 22:56:12 10° E visible
23 Jun - 00:41:00 10° WNW 00:50:44 64° SSW 01:00:43 10° SE visible
23 Jun - 02:46:15 10° W 02:54:19 29° SW 03:02:28 10° S visible
23 Jun - 18:05:02 10° S 18:12:42 29° SE 18:20:36 10° E daylight
23 Jun - 20:06:49 10° SW 20:16:12 66° SSE 20:25:58 10° ENE daylight
23 Jun - 22:11:07 10° W 22:20:51 86° S 22:30:58 10° E visible
24 Jun - 00:15:49 10° WNW 00:25:33 67° SSW 00:35:34 10° SE visible
24 Jun - 02:20:58 10° WNW 02:29:15 31° SW 02:37:40 10° SSE visible
24 Jun - 17:40:17 10° S 17:47:40 27° SE 17:55:15 10° E daylight
24 Jun - 19:41:44 10° SW 19:51:03 63° SSE 20:00:45 10° ENE daylight
24 Jun - 21:45:57 10° W 21:55:39 86° S 22:05:43 10° E visible
24 Jun - 23:50:39 10° WNW 00:00:23 69° SSW 00:10:25 10° ESE visible
25 Jun - 01:55:41 10° WNW 02:04:10 33° SW 02:12:48 10° SSE visible
25 Jun - 17:15:35 10° S 17:22:39 25° SE 17:29:54 10° E daylight
25 Jun - 19:16:41 10° SW 19:25:55 61° SSE 19:35:31 10° ENE daylight
25 Jun - 21:20:47 10° W 21:30:26 85° S 21:40:29 10° E visible
25 Jun - 23:25:28 10° WNW 23:35:13 72° SSW 23:45:15 10° ESE visible
26 Jun - 01:30:25 10° WNW 01:39:05 36° SW 01:47:54 10° SSE visible
26 Jun - 16:50:56 10° S 16:57:38 23° SE 17:04:30 10° E daylight
26 Jun - 18:51:39 10° SW 19:00:47 58° SSE 19:10:18 10° ENE daylight
26 Jun - 20:55:37 10° W 21:05:14 85° S 21:15:15 10° E visible
26 Jun - 23:00:18 10° W 23:10:02 74° SSW 23:20:04 10° ESE visible
27 Jun - 01:05:11 10° WNW 01:14:00 38° SW 01:22:59 10° SSE visible
27 Jun - 03:15:37 10° WSW 03:16:33 10° WSW 03:17:30 10° SW visible
27 Jun - 16:26:21 10° S 16:32:38 21° SE 16:39:03 10° E daylight
27 Jun - 18:26:38 10° SW 18:35:41 55° SSE 18:45:04 10° ENE daylight
27 Jun - 20:30:28 10° W 20:40:02 84° S 20:50:02 10° E visible
27 Jun - 22:35:08 10° W 22:44:51 76° SSW 22:54:53 10° ESE visible
